Regional Weather Roundup
Issued by NWS

Home | Current Version | Previous Version | Text Only | Print | Product List | Glossary Off
Versions: 1 2 3 4 5 6 7 8 9 10 11 12 13 14 15 16 17 18 19 20 21 22 23 24 25 26 27 28 29 30 31 32 33 34 35 36 37 38 39 40 41 42 43 44 45 46 47 48 49 50

000
ASUS43 KDTX 240510
RWRMI
MICHIGAN HOURLY REGIONAL WEATHER ROUNDUP
NATIONAL WEATHER SERVICE DETROIT/PONTIAC MI
100 AM EDT THU APR 24 2014

NOTE: "FAIR" INDICATES FEW OR NO CLOUDS BELOW 12,000 FEET WITH NO
SIGNIFICANT WEATHER AND/OR OBSTRUCTION TO VISIBILITY.

MIZ047>049-052>055-059>063-066>070-074>076-081>083-240600-
SOUTHEAST LOWER MICHIGAN

CITY           SKY/WX    TMP DP  RH WIND       PRES   REMARKS
ADRIAN         CLOUDY    46  31  55 S6        30.11F
ALMA           CLOUDY    40  28  62 NE6       30.11S
ANN ARBOR      CLOUDY    43  28  55 CALM      30.11F
BAD AXE        CLEAR     28  23  81 CALM      30.14S
CARO           PTCLDY    34  26  71 CALM      30.13S
DETROIT CITY   MOCLDY    42  17  36 SE3       30.15R
DETROIT        CLOUDY    44  26  49 E6        30.13S
FLINT          CLOUDY    41  23  48 E9        30.13S
GROSSE ILE     MOCLDY    43  28  56 E6        30.12S
HILLSDALE      CLOUDY    48  21  34 SE7       30.09S
HOWELL         CLOUDY    42  19  40 E3        30.10S

CITY           SKY/WX    TMP DP  RH WIND       PRES   REMARKS
JACKSON        CLOUDY    46  18  32 SE8       30.09F
LAMBERTVILLE   CLOUDY    46  32  57 SE5       30.11F
LANSING        CLOUDY    46  29  51 CALM      30.10F
LAPEER         FAIR      33  27  79 E3        30.13F
MASON          CLOUDY    44  27  52 CALM      30.09F
MONROE         CLOUDY    45  30  57 SE3       30.10F
MT. CLEMENS    PTCLDY    35  18  50 CALM      30.13S
PONTIAC        CLOUDY    40  21  46 E6        30.12S
PORT HOPE        N/A     30  25  81 CALM      30.12S
PORT HURON     PTCLDY    30  27  86 CALM      30.15S
TRI CITIES     MOCLDY    40  26  57 E6        30.13S
TROY           MOCLDY    40  16  37 E3        30.15S
SAGINAW HB     MOCLDY    37  27  65 SE5       30.13S WCI  34
YPSILANTI      CLOUDY    43  31  62 NE5       30.12S
$$
MIZ043>046-050>051-056>058-064>065-071>073-077>080-240600-
SOUTHWEST LOWER MICHIGAN

CITY           SKY/WX    TMP DP  RH WIND       PRES   REMARKS
BATTLE CREEK   CLOUDY    47  30  51 NE6       30.09F
BENTON HARBOR  CLOUDY    42  27  55 E6        30.06F
BIG RAPIDS     CLOUDY    41  19  41 CALM      30.10R
COLDWATER      CLOUDY    48  19  31 SE6       30.08S
FREMONT        FAIR      41  26  57 NE3       30.08S
HOLLAND        CLOUDY    45  28  51 E6        30.08F
GRAND RAPIDS   CLOUDY    47  27  45 E3        30.09S
IONIA          FAIR      44  29  54 CALM      30.08F
KALAMAZOO      CLOUDY    47  30  51 NE3       30.08F
LUDINGTON      CLOUDY    37  28  70 E3        30.10S
MARSHALL       CLOUDY    46  31  55 CALM      30.09S
MOUNT PLEASANT CLOUDY    39  24  56 NE5       30.11S
MUSKEGON       CLOUDY    45  25  45 E3        30.08F
SOUTH HAVEN    CLOUDY    41  28  60 E3        30.07F
$$
MIZ016>042-240600-
NORTHERN LOWER MICHIGAN

CITY           SKY/WX    TMP DP  RH WIND       PRES   REMARKS
ALPENA         CLEAR     30  25  81 W3        30.14R
BEAVER ISLAND  MOCLDY    30  25  81 CALM      30.14S
BELLAIRE       PTCLDY    32  26  80 CALM      30.13S
CADILLAC       MOCLDY    31  21  68 CALM      30.10S
CHARLEVOIX     MOCLDY    32  23  70 CALM      30.17S
FRANKFORT      CLOUDY    40  18  40 E3        30.11S
GAYLORD        PTCLDY    32  19  58 CALM      30.12R
GRAYLING       PTCLDY    29  20  70 CALM      30.13S
HARBOR SPRINGS MOCLDY    30  25  82 CALM      30.14S
HOUGHTON LAKE  MOCLDY    33  25  72 CALM      30.12S
MANISTEE       MOCLDY    39  18  41 E7        30.11S WCI  34
OSCODA         CLEAR     28  20  70 CALM      30.14R
PELLSTON       MOCLDY    28  21  75 CALM      30.15R
ROGERS CITY    PTCLDY    34  24  66 W6        30.14S WCI  29
TRAVERSE CITY  CLOUDY    35  26  69 CALM      30.12
$$
MIZ007>008-015-240600-
EASTERN UPPER MICHIGAN

CITY           SKY/WX    TMP DP  RH WIND       PRES   REMARKS
KINROSS        PTCLDY    30  28  93 CALM      30.13S
MACKINAC ISLAN PTCLDY    31  23  74 N5        30.14R WCI  26
NEWBERRY       MOCLDY    32  24  72 CALM      30.13R
S. S. MARIE    PTCLDY    32  24  72 CALM      30.13R
MUNISING         N/A     34  25  69 CALM      30.11S
$$
MIZ004>006-011>014-085-240600-
CENTRAL UPPER MICHIGAN

CITY           SKY/WX    TMP DP  RH WIND       PRES   REMARKS
MANISTIQUE     MOCLDY    29  26  88 W8        30.12F WCI  21
ESCANABA       CLOUDY    30  23  74 CALM      30.12S
MENOMINEE      CLOUDY    36  19  51 CALM      30.11S
SAWYER-GWINN   CLOUDY    36  23  58 SW3       30.10S
$$
MIZ001>003-009>011-084-240600-
WESTERN UPPER MICHIGAN

CITY           SKY/WX    TMP DP  RH WIND       PRES   REMARKS
IRON MOUNTAIN  CLOUDY    38  15  39 SE3       30.09R
HOUGHTON       CLOUDY    37  18  46 E6        30.08S WCI  32
COPPER HARBOR    N/A     37  21  52 SW14      30.09R WCI  28
IRONWOOD       CLOUDY    46  23  39 S8        30.00S
$$

ABBREVIATIONS USED IN REMARKS
   TC - TEMPERATURE IN CELSIUS
  WCI - WIND CHILL INDEX
   HX - HEAT INDEX
  VSB - VISIBILITY




USA.gov is the U.S. government's official web portal to all federal, state and local government web resources and services.